Time,TemperatureF,DewpointF,PressureIn,WindDirection,WindDirectionDegrees,WindSpeedMPH,WindSpeedGustMPH,Humidity,HourlyPrecipIn,Conditions,Clouds,dailyrainin,SoftwareType,DateUTC
2013-01-10 00:04:00,62.3,62.3,-100.00,NNW,337,6.1,10.7,100,0.02,,,0.01,,2013-01-10 06:04:00,
2013-01-10 00:09:00,62.0,62.0,-100.00,NNW,337,6.0,10.2,100,0.03,,,0.02,,2013-01-10 06:09:00,
2013-01-10 00:14:00,62.3,62.3,-100.00,NNW,337,6.0,10.2,100,0.04,,,0.03,,2013-01-10 06:14:00,
2013-01-10 00:19:00,62.5,62.5,-100.00,NNW,337,5.6,9.7,100,0.04,,,0.03,,2013-01-10 06:19:00,
2013-01-10 00:24:00,62.6,62.6,-100.00,NNW,337,4.7,9.7,100,0.05,,,0.04,,2013-01-10 06:24:00,
2013-01-10 00:29:00,62.8,62.8,-100.00,NNW,337,5.0,8.9,100,0.05,,,0.04,,2013-01-10 06:29:00,
2013-01-10 00:34:00,62.7,62.6,-100.00,NNW,337,5.5,11.9,99,0.05,,,0.04,,2013-01-10 06:34:00,
2013-01-10 00:39:00,62.9,62.9,-100.00,NNW,337,4.9,11.9,100,0.05,,,0.04,,2013-01-10 06:39:00,
2013-01-10 00:44:00,62.9,62.9,-100.00,NNW,337,5.1,7.7,100,0.05,,,0.04,,2013-01-10 06:44:00,
2013-01-10 00:49:00,63.0,63.0,-100.00,NNW,337,5.9,9.2,99,0.05,,,0.04,,2013-01-10 06:49:00,
2013-01-10 00:54:00,63.2,63.2,-100.00,North,0,5.7,9.2,100,0.04,,,0.04,,2013-01-10 06:54:00,
2013-01-10 00:59:00,63.2,63.1,-100.00,North,0,5.5,8.4,99,0.04,,,0.04,,2013-01-10 06:59:00,
2013-01-10 01:04:00,62.9,62.9,-100.00,NNW,337,6.1,10.7,100,0.03,,,0.04,,2013-01-10 07:04:00,
2013-01-10 01:09:00,63.2,63.2,-100.00,NNW,337,5.5,9.8,100,0.02,,,0.04,,2013-01-10 07:09:00,
2013-01-10 01:14:00,63.3,63.3,-100.00,NNW,337,6.5,11.3,100,0.01,,,0.04,,2013-01-10 07:14:00,
2013-01-10 01:19:00,63.2,63.2,-100.00,NNW,337,5.5,9.6,100,0.01,,,0.04,,2013-01-10 07:19:00,
2013-01-10 01:24:00,62.9,62.9,-100.00,NNW,337,5.8,11.6,100,0.00,,,0.04,,2013-01-10 07:24:00,
2013-01-10 01:29:00,62.9,62.9,-100.00,NNW,337,5.2,9.2,100,0.00,,,0.04,,2013-01-10 07:29:00,
2013-01-10 01:34:00,62.7,62.4,-100.00,NNW,337,4.9,7.8,98,0.00,,,0.04,,2013-01-10 07:34:00,
2013-01-10 01:39:00,63.4,63.2,-100.00,NNW,337,5.8,9.0,99,0.00,,,0.04,,2013-01-10 07:39:00,
2013-01-10 01:44:00,63.0,63.0,-100.00,NNW,337,6.4,9.8,100,0.00,,,0.04,,2013-01-10 07:44:00,
2013-01-10 01:49:00,62.8,62.8,-100.00,NNW,337,6.1,9.8,100,0.00,,,0.04,,2013-01-10 07:49:00,
2013-01-10 01:54:00,63.0,63.0,-100.00,NNW,337,5.6,8.5,100,0.00,,,0.04,,2013-01-10 07:54:00,
2013-01-10 01:59:00,63.4,63.4,-100.00,NNW,337,4.9,8.0,100,0.00,,,0.04,,2013-01-10 07:59:00,
2013-01-10 02:04:00,63.5,63.5,-100.00,NNW,337,5.5,10.2,100,0.00,,,0.04,,2013-01-10 08:04:00,
2013-01-10 02:09:00,63.4,63.4,-100.00,NNW,337,6.2,10.2,100,0.00,,,0.04,,2013-01-10 08:09:00,
2013-01-10 02:14:00,63.6,63.6,-100.00,NNW,337,5.7,9.3,100,0.00,,,0.04,,2013-01-10 08:14:00,
2013-01-10 02:19:00,63.5,63.5,-100.00,NNW,337,4.9,9.3,100,0.00,,,0.04,,2013-01-10 08:19:00,
2013-01-10 02:24:00,63.5,63.5,-100.00,NNW,337,5.2,9.4,100,0.00,,,0.04,,2013-01-10 08:24:00,
2013-01-10 02:29:00,63.5,63.5,-100.00,NNW,337,5.9,9.4,100,0.00,,,0.04,,2013-01-10 08:29:00,
2013-01-10 02:34:00,63.3,63.3,-100.00,NNW,337,5.5,9.5,100,0.00,,,0.04,,2013-01-10 08:34:00,
2013-01-10 02:39:00,63.2,63.2,-100.00,NNW,337,5.5,9.5,100,0.00,,,0.04,,2013-01-10 08:39:00,
2013-01-10 02:44:00,63.2,63.2,-100.00,NW,315,5.7,9.4,100,0.00,,,0.04,,2013-01-10 08:44:00,
2013-01-10 02:49:00,63.3,63.3,-100.00,NNW,337,5.7,8.6,100,0.00,,,0.04,,2013-01-10 08:49:00,
2013-01-10 02:54:00,63.0,63.0,-100.00,NNW,337,5.5,8.0,100,0.00,,,0.04,,2013-01-10 08:54:00,
2013-01-10 02:59:00,63.0,63.0,-100.00,NNW,337,5.8,11.5,100,0.00,,,0.04,,2013-01-10 08:59:00,
2013-01-10 03:05:00,62.9,62.9,-100.00,NNW,337,6.4,11.5,100,0.00,,,0.04,,2013-01-10 09:05:00,
2013-01-10 03:10:00,63.0,63.0,-100.00,NNW,337,6.1,11.5,100,0.00,,,0.04,,2013-01-10 09:10:00,
2013-01-10 03:15:00,63.3,63.3,-100.00,NNW,337,5.5,11.5,100,0.00,,,0.04,,2013-01-10 09:15:00,
2013-01-10 03:20:00,63.7,63.7,-100.00,NNW,337,6.0,10.7,100,0.00,,,0.04,,2013-01-10 09:20:00,
2013-01-10 03:25:00,63.5,63.4,-100.00,NNW,337,6.6,12.2,99,0.00,,,0.04,,2013-01-10 09:25:00,
2013-01-10 03:30:00,63.7,63.7,-100.00,NNW,337,6.5,12.2,99,0.00,,,0.04,,2013-01-10 09:30:00,
2013-01-10 03:35:00,64.0,63.8,-100.00,NNW,337,7.4,11.3,99,0.00,,,0.04,,2013-01-10 09:35:00,
2013-01-10 03:40:00,64.0,63.8,-100.00,NNW,337,7.6,11.3,99,0.00,,,0.04,,2013-01-10 09:40:00,
2013-01-10 03:45:00,63.8,63.4,-100.00,NNW,337,7.7,13.5,98,0.00,,,0.04,,2013-01-10 09:45:00,
2013-01-10 03:50:00,64.0,64.0,-100.00,NNW,337,7.6,13.5,100,0.00,,,0.04,,2013-01-10 09:50:00,
2013-01-10 03:55:00,63.6,63.4,-100.00,NNW,337,7.2,13.2,99,0.00,,,0.04,,2013-01-10 09:55:00,
2013-01-10 04:00:00,63.6,63.2,-100.00,NNW,337,7.2,11.8,98,0.00,,,0.04,,2013-01-10 10:00:00,
2013-01-10 04:05:00,63.6,63.3,-100.00,NNW,337,7.7,12.1,98,0.00,,,0.04,,2013-01-10 10:05:00,
2013-01-10 04:10:00,63.4,63.1,-100.00,NNW,337,8.2,13.2,99,0.00,,,0.04,,2013-01-10 10:10:00,
2013-01-10 04:15:00,63.6,63.2,-100.00,NNW,337,9.1,13.9,98,0.00,,,0.04,,2013-01-10 10:15:00,
2013-01-10 04:20:00,63.0,62.8,-100.00,NNW,337,9.1,15.8,99,0.00,,,0.04,,2013-01-10 10:20:00,
2013-01-10 04:25:00,62.8,62.3,-100.00,NNW,337,8.3,15.8,98,0.00,,,0.04,,2013-01-10 10:25:00,
2013-01-10 04:30:00,62.6,61.9,-100.00,NNW,337,7.8,13.3,97,0.00,,,0.04,,2013-01-10 10:30:00,
2013-01-10 04:35:00,62.5,62.2,-100.00,NNW,337,8.0,13.0,99,0.00,,,0.04,,2013-01-10 10:35:00,
2013-01-10 04:40:00,62.5,62.4,-100.00,NNW,337,7.7,13.0,99,0.00,,,0.04,,2013-01-10 10:40:00,
2013-01-10 04:45:00,62.5,62.4,-100.00,NNW,337,7.2,13.0,99,0.00,,,0.04,,2013-01-10 10:45:00,
2013-01-10 04:50:00,62.4,62.2,-100.00,NNW,337,7.8,15.1,99,0.00,,,0.04,,2013-01-10 10:50:00,
2013-01-10 04:56:00,62.4,62.2,-100.00,NNW,337,8.1,15.1,99,0.00,,,0.04,,2013-01-10 10:56:00,
2013-01-10 05:01:00,62.5,62.4,-100.00,NNW,337,7.6,12.3,99,0.00,,,0.04,,2013-01-10 11:01:00,
2013-01-10 05:06:00,62.6,62.5,-100.00,NNW,337,8.2,13.4,99,0.00,,,0.04,,2013-01-10 11:06:00,
2013-01-10 05:11:00,62.7,62.7,-100.00,NNW,337,8.1,11.6,99,0.00,,,0.04,,2013-01-10 11:11:00,
2013-01-10 05:16:00,62.6,62.6,-100.00,NNW,337,8.2,13.3,99,0.00,,,0.04,,2013-01-10 11:16:00,
2013-01-10 05:21:00,62.0,61.8,-100.00,NNW,337,8.0,14.1,99,0.00,,,0.04,,2013-01-10 11:21:00,
2013-01-10 05:26:00,61.9,61.6,-100.00,NNW,337,7.6,14.1,99,0.00,,,0.04,,2013-01-10 11:26:00,
2013-01-10 05:31:00,61.9,61.9,-100.00,NNW,337,7.5,10.5,100,0.00,,,0.04,,2013-01-10 11:31:00,
2013-01-10 05:36:00,61.9,61.8,-100.00,NNW,337,7.6,13.3,99,0.00,,,0.04,,2013-01-10 11:36:00,
2013-01-10 05:41:00,61.9,61.8,-100.00,NNW,337,7.7,13.5,99,0.00,,,0.04,,2013-01-10 11:41:00,
2013-01-10 05:46:00,62.0,62.0,-100.00,NNW,337,7.3,13.5,100,0.00,,,0.04,,2013-01-10 11:46:00,
2013-01-10 05:51:00,61.9,61.8,-100.00,NNW,337,6.9,10.1,99,0.00,,,0.04,,2013-01-10 11:51:00,
2013-01-10 05:56:00,61.9,61.9,-100.00,NNW,337,6.7,11.5,99,0.00,,,0.04,,2013-01-10 11:56:00,
2013-01-10 06:01:00,61.7,61.4,-100.00,NNW,337,6.4,11.7,99,0.00,,,0.04,,2013-01-10 12:01:00,
2013-01-10 06:06:00,61.5,61.3,-100.00,NNW,337,6.1,12.2,99,0.00,,,0.04,,2013-01-10 12:06:00,
2013-01-10 06:11:00,61.4,61.3,-100.00,NNW,337,5.7,8.9,99,0.00,,,0.04,,2013-01-10 12:11:00,
2013-01-10 06:16:00,61.1,61.1,-100.00,NNW,337,6.3,10.2,99,0.00,,,0.04,,2013-01-10 12:16:00,
2013-01-10 06:21:00,61.1,61.1,-100.00,NNW,337,6.5,10.6,99,0.00,,,0.04,,2013-01-10 12:21:00,
2013-01-10 06:26:00,61.4,57.2,-100.00,NNW,337,6.1,10.6,86,0.00,,,0.04,,2013-01-10 12:26:00,
2013-01-10 06:31:00,61.7,61.6,-100.00,NNW,337,6.0,11.9,99,0.00,,,0.04,,2013-01-10 12:31:00,
2013-01-10 06:36:00,61.9,61.8,-100.00,NNW,337,6.6,11.9,99,0.00,,,0.04,,2013-01-10 12:36:00,
2013-01-10 06:41:00,62.4,62.1,-100.00,NNW,337,6.6,10.1,99,0.00,,,0.04,,2013-01-10 12:41:00,
2013-01-10 06:46:00,62.5,62.2,-100.00,NNW,337,6.4,10.1,99,0.00,,,0.04,,2013-01-10 12:46:00,
2013-01-10 06:51:00,62.3,62.1,-100.00,NNW,337,7.0,12.8,99,0.00,,,0.04,,2013-01-10 12:51:00,
2013-01-10 06:56:00,62.0,61.9,-100.00,NNW,337,6.9,12.8,99,0.00,,,0.04,,2013-01-10 12:56:00,
2013-01-10 07:01:00,62.0,61.9,-100.00,NNW,337,7.1,10.0,99,0.00,,,0.04,,2013-01-10 13:01:00,
2013-01-10 07:06:00,61.9,61.8,-100.00,NNW,337,7.4,12.0,99,0.00,,,0.04,,2013-01-10 13:06:00,
2013-01-10 07:11:00,61.8,61.7,-100.00,NNW,337,7.1,12.0,99,0.00,,,0.04,,2013-01-10 13:11:00,
2013-01-10 07:17:00,61.8,61.8,-100.00,NNW,337,6.5,11.0,99,0.00,,,0.04,,2013-01-10 13:17:00,
2013-01-10 07:21:00,61.8,61.8,-100.00,NNW,337,6.4,9.3,99,0.00,,,0.04,,2013-01-10 13:21:00,
2013-01-10 07:26:00,61.6,61.5,-100.00,NNW,337,6.9,11.6,99,0.00,,,0.04,,2013-01-10 13:26:00,
2013-01-10 07:31:00,61.6,61.5,-100.00,NNW,337,6.2,12.3,99,0.00,,,0.04,,2013-01-10 13:31:00,
2013-01-10 07:37:00,61.5,61.3,-100.00,NNW,337,6.3,12.3,99,0.00,,,0.04,,2013-01-10 13:37:00,
2013-01-10 07:42:00,61.5,61.5,-100.00,NNW,337,6.3,11.7,99,0.00,,,0.04,,2013-01-10 13:42:00,
2013-01-10 07:47:00,61.6,61.6,-100.00,NNW,337,5.9,10.8,99,0.00,,,0.04,,2013-01-10 13:47:00,
2013-01-10 07:52:00,61.7,61.7,-100.00,NNW,337,6.1,10.8,99,0.00,,,0.04,,2013-01-10 13:52:00,
2013-01-10 07:57:00,61.6,61.6,-100.00,NNW,337,7.2,10.0,100,0.00,,,0.04,,2013-01-10 13:57:00,
2013-01-10 08:02:00,61.5,61.5,-100.00,NNW,337,7.5,10.9,99,0.00,,,0.04,,2013-01-10 14:02:00,
2013-01-10 08:07:00,61.2,61.2,-100.00,NNW,337,7.2,10.9,100,0.00,,,0.04,,2013-01-10 14:07:00,
2013-01-10 08:12:00,61.5,61.5,-100.00,NNW,337,7.4,13.5,100,0.00,,,0.04,,2013-01-10 14:12:00,
2013-01-10 08:17:00,61.6,61.6,-100.00,NNW,337,6.9,13.5,100,0.00,,,0.04,,2013-01-10 14:17:00,
2013-01-10 08:21:00,61.5,61.5,-100.00,NNW,337,6.3,10.0,100,0.00,,,0.04,,2013-01-10 14:21:00,
2013-01-10 08:27:00,61.6,61.6,-100.00,NNW,337,6.5,9.7,100,0.00,,,0.04,,2013-01-10 14:27:00,
2013-01-10 08:32:00,61.8,61.8,-100.00,NNW,337,6.4,11.0,100,0.00,,,0.04,,2013-01-10 14:32:00,
2013-01-10 08:37:00,61.7,61.7,-100.00,NNW,337,6.4,10.2,100,0.00,,,0.04,,2013-01-10 14:37:00,
2013-01-10 08:42:00,61.7,61.7,-100.00,NNW,337,6.6,10.3,100,0.00,,,0.04,,2013-01-10 14:42:00,
2013-01-10 08:47:00,61.8,61.8,-100.00,NNW,337,6.5,11.6,99,0.00,,,0.04,,2013-01-10 14:47:00,
2013-01-10 08:52:00,62.2,62.2,-100.00,NNW,337,6.5,12.4,100,0.00,,,0.04,,2013-01-10 14:52:00,
2013-01-10 08:57:00,62.3,62.3,-100.00,NNW,337,6.5,10.6,100,0.00,,,0.04,,2013-01-10 14:57:00,
2013-01-10 09:02:00,62.6,62.6,-100.00,NNW,337,6.6,11.0,100,0.00,,,0.04,,2013-01-10 15:02:00,
2013-01-10 09:07:00,62.5,62.5,-100.00,NNW,337,6.7,11.0,100,0.00,,,0.04,,2013-01-10 15:07:00,
2013-01-10 09:12:00,62.8,62.8,-100.00,NNW,337,6.6,10.6,100,0.00,,,0.04,,2013-01-10 15:12:00,
2013-01-10 09:17:00,63.0,63.0,-100.00,NNW,337,6.7,10.6,100,0.00,,,0.04,,2013-01-10 15:17:00,
2013-01-10 09:22:00,62.9,62.9,-100.00,North,0,6.7,10.5,100,0.00,,,0.04,,2013-01-10 15:22:00,
2013-01-10 09:27:00,62.8,62.8,-100.00,NNW,337,6.6,11.5,100,0.00,,,0.04,,2013-01-10 15:27:00,
2013-01-10 09:32:00,62.5,62.5,-100.00,NNW,337,6.7,12.0,100,0.00,,,0.04,,2013-01-10 15:32:00,
2013-01-10 09:37:00,62.4,62.4,-100.00,NNW,337,7.0,12.0,100,0.00,,,0.04,,2013-01-10 15:37:00,
2013-01-10 09:42:00,61.8,61.8,-100.00,NNW,337,6.0,9.9,100,0.00,,,0.04,,2013-01-10 15:42:00,
2013-01-10 09:47:00,61.5,61.5,-100.00,NNW,337,6.1,11.4,100,0.00,,,0.04,,2013-01-10 15:47:00,
2013-01-10 09:52:00,61.6,61.6,-100.00,NNW,337,6.1,11.4,100,0.00,,,0.04,,2013-01-10 15:52:00,
2013-01-10 09:57:00,61.6,61.4,-100.00,NNW,337,6.8,10.6,99,0.00,,,0.04,,2013-01-10 15:57:00,
2013-01-10 10:02:00,61.7,61.7,-100.00,NNW,337,6.8,10.6,99,0.00,,,0.04,,2013-01-10 16:02:00,
2013-01-10 10:07:00,61.8,61.8,-100.00,NNW,337,6.0,10.0,100,0.00,,,0.04,,2013-01-10 16:07:00,
2013-01-10 10:13:00,62.2,62.1,-100.00,NNW,337,5.9,11.3,99,0.00,,,0.04,,2013-01-10 16:13:00,
2013-01-10 10:18:00,62.2,62.2,-100.00,NNW,337,5.2,10.1,100,0.00,,,0.04,,2013-01-10 16:18:00,
2013-01-10 10:23:00,62.5,62.5,-100.00,NNW,337,5.5,10.5,100,0.00,,,0.04,,2013-01-10 16:23:00,
2013-01-10 10:28:00,62.5,62.5,-100.00,NNW,337,6.2,10.1,100,0.00,,,0.04,,2013-01-10 16:28:00,
2013-01-10 10:33:00,62.6,62.4,-100.00,NNW,337,7.0,13.2,99,0.00,,,0.04,,2013-01-10 16:33:00,
2013-01-10 10:38:00,62.6,62.6,-100.00,NNW,337,6.9,13.2,100,0.00,,,0.04,,2013-01-10 16:38:00,
2013-01-10 10:43:00,62.7,62.7,-100.00,NNW,337,7.0,13.5,100,0.00,,,0.04,,2013-01-10 16:43:00,
2013-01-10 10:48:00,62.7,62.7,-100.00,NNW,337,7.3,11.7,100,0.00,,,0.04,,2013-01-10 16:48:00,
2013-01-10 10:53:00,62.9,62.9,-100.00,NNW,337,7.4,11.7,100,0.00,,,0.04,,2013-01-10 16:53:00,
2013-01-10 10:58:00,63.4,63.4,-100.00,NNW,337,6.7,10.9,100,0.00,,,0.04,,2013-01-10 16:58:00,
2013-01-10 11:03:00,63.3,63.3,-100.00,NNW,337,6.4,10.5,100,0.00,,,0.04,,2013-01-10 17:03:00,
2013-01-10 11:08:00,63.2,63.2,-100.00,NNW,337,6.6,10.8,100,0.00,,,0.04,,2013-01-10 17:08:00,
2013-01-10 11:13:00,63.4,63.4,-100.00,NNW,337,6.0,10.8,100,0.00,,,0.04,,2013-01-10 17:13:00,
2013-01-10 11:18:00,63.5,63.5,-100.00,NNW,337,6.2,10.5,100,0.00,,,0.04,,2013-01-10 17:18:00,
2013-01-10 11:23:00,63.4,63.2,-100.00,NNW,337,6.7,11.0,99,0.00,,,0.04,,2013-01-10 17:23:00,
2013-01-10 11:28:00,63.4,63.4,-100.00,NNW,337,6.9,13.5,100,0.00,,,0.04,,2013-01-10 17:28:00,
2013-01-10 11:33:00,63.5,63.5,-100.00,NNW,337,6.4,10.3,100,0.00,,,0.04,,2013-01-10 17:33:00,
2013-01-10 11:38:00,63.5,63.5,-100.00,NNW,337,6.0,9.9,100,0.00,,,0.04,,2013-01-10 17:38:00,
2013-01-10 11:43:00,63.5,63.1,-100.00,NNW,337,5.7,10.1,98,0.00,,,0.04,,2013-01-10 17:43:00,
2013-01-10 11:48:00,63.4,63.4,-100.00,NNW,337,4.9,8.9,100,0.00,,,0.04,,2013-01-10 17:48:00,
2013-01-10 11:53:00,63.6,63.6,-100.00,NNW,337,5.8,8.6,100,0.00,,,0.04,,2013-01-10 17:53:00,
2013-01-10 11:58:00,63.5,63.5,-100.00,NNW,337,5.8,9.6,100,0.00,,,0.04,,2013-01-10 17:58:00,
2013-01-10 12:03:00,63.5,63.5,-100.00,NNW,337,5.6,9.6,100,0.00,,,0.04,,2013-01-10 18:03:00,
2013-01-10 12:08:00,63.5,63.5,-100.00,NNW,337,5.1,8.8,100,0.00,,,0.04,,2013-01-10 18:08:00,
2013-01-10 12:13:00,63.7,63.7,-100.00,NNW,337,5.0,8.8,100,0.00,,,0.04,,2013-01-10 18:13:00,
2013-01-10 12:18:00,63.8,63.7,-100.00,NNW,337,5.5,10.0,99,0.00,,,0.04,,2013-01-10 18:18:00,
2013-01-10 12:23:00,64.0,64.0,-100.00,NNW,337,5.7,10.0,100,0.00,,,0.04,,2013-01-10 18:23:00,
2013-01-10 12:28:00,63.7,63.7,-100.00,NNW,337,5.6,8.9,100,0.00,,,0.04,,2013-01-10 18:28:00,
2013-01-10 12:33:00,64.0,63.9,-100.00,NNW,337,5.6,9.1,99,0.00,,,0.04,,2013-01-10 18:33:00,
2013-01-10 12:38:00,63.7,63.7,-100.00,NNW,337,5.7,9.9,100,0.00,,,0.04,,2013-01-10 18:38:00,
2013-01-10 12:43:00,63.8,63.8,-100.00,NNW,337,6.2,9.4,99,0.00,,,0.04,,2013-01-10 18:43:00,
2013-01-10 12:48:00,63.6,63.6,-100.00,NNW,337,6.4,9.4,100,0.00,,,0.04,,2013-01-10 18:48:00,
2013-01-10 12:53:00,63.6,63.6,-100.00,NNW,337,5.9,9.4,100,0.00,,,0.04,,2013-01-10 18:53:00,
2013-01-10 12:58:00,63.6,63.6,-100.00,NNW,337,5.7,9.8,100,0.00,,,0.04,,2013-01-10 18:58:00,
2013-01-10 13:03:00,63.8,63.8,-100.00,NNW,337,6.1,9.7,100,0.00,,,0.04,,2013-01-10 19:03:00,
2013-01-10 13:08:00,64.0,64.0,-100.00,NNW,337,6.8,11.4,100,0.00,,,0.04,,2013-01-10 19:08:00,
2013-01-10 13:13:00,63.8,63.8,-100.00,NNW,337,6.5,11.4,100,0.00,,,0.04,,2013-01-10 19:13:00,
2013-01-10 13:18:00,64.1,64.1,-100.00,NNW,337,6.6,11.0,100,0.00,,,0.04,,2013-01-10 19:18:00,
2013-01-10 13:23:00,64.3,64.3,-100.00,NNW,337,7.3,11.6,100,0.00,,,0.04,,2013-01-10 19:23:00,
2013-01-10 13:28:00,64.5,64.5,-100.00,NNW,337,7.5,11.7,100,0.00,,,0.04,,2013-01-10 19:28:00,
2013-01-10 13:33:00,64.5,64.5,-100.00,NNW,337,7.5,11.7,100,0.02,,,0.06,,2013-01-10 19:33:00,
2013-01-10 13:38:00,64.5,64.1,-100.00,NNW,337,6.9,11.1,98,0.06,,,0.10,,2013-01-10 19:38:00,
2013-01-10 13:43:00,63.3,63.3,-100.00,North,0,7.2,15.3,100,0.07,,,0.11,,2013-01-10 19:43:00,
2013-01-10 13:48:00,62.5,62.5,-100.00,NNE,22,6.5,15.3,100,0.08,,,0.12,,2013-01-10 19:48:00,
2013-01-10 13:53:00,61.6,61.5,-100.00,NNE,22,4.5,8.0,99,0.10,,,0.14,,2013-01-10 19:53:00,
2013-01-10 13:58:00,61.4,61.4,-100.00,NE,45,3.4,5.8,100,0.10,,,0.14,,2013-01-10 19:58:00,
2013-01-10 14:03:00,60.8,60.8,-100.00,NE,45,3.1,5.4,100,0.11,,,0.15,,2013-01-10 20:03:00,
2013-01-10 14:08:00,60.0,60.0,-100.00,NE,45,3.3,6.0,100,0.11,,,0.15,,2013-01-10 20:08:00,
2013-01-10 14:14:00,60.1,60.1,-100.00,NE,45,3.1,6.0,100,0.11,,,0.15,,2013-01-10 20:14:00,
2013-01-10 14:19:00,60.2,60.2,-100.00,ENE,67,2.2,4.4,100,0.12,,,0.16,,2013-01-10 20:19:00,
2013-01-10 14:24:00,60.0,60.0,-100.00,ENE,67,2.8,5.4,100,0.12,,,0.16,,2013-01-10 20:24:00,
2013-01-10 14:29:00,60.0,60.0,-100.00,ENE,67,3.0,5.4,100,0.12,,,0.16,,2013-01-10 20:29:00,
2013-01-10 14:34:00,59.6,59.6,-100.00,ENE,67,3.3,5.6,100,0.10,,,0.16,,2013-01-10 20:34:00,
2013-01-10 14:39:00,59.8,59.8,-100.00,East,90,2.8,5.2,100,0.06,,,0.16,,2013-01-10 20:39:00,
2013-01-10 14:44:00,59.7,59.7,-100.00,East,90,2.7,4.8,100,0.04,,,0.16,,2013-01-10 20:44:00,
2013-01-10 14:49:00,59.9,59.9,-100.00,East,90,2.6,4.8,100,0.03,,,0.16,,2013-01-10 20:49:00,
2013-01-10 14:54:00,60.2,60.2,-100.00,ESE,112,2.5,5.9,100,0.02,,,0.16,,2013-01-10 20:54:00,
2013-01-10 14:59:00,60.5,60.5,-100.00,SE,135,2.5,5.9,100,0.02,,,0.16,,2013-01-10 20:59:00,
2013-01-10 15:04:00,60.7,60.7,-100.00,ESE,112,1.9,3.4,100,0.02,,,0.17,,2013-01-10 21:04:00,
2013-01-10 15:09:00,60.8,60.8,-100.00,SE,135,2.1,3.4,100,0.02,,,0.17,,2013-01-10 21:09:00,
2013-01-10 15:14:00,61.0,61.0,-100.00,SE,135,2.9,4.5,100,0.03,,,0.18,,2013-01-10 21:14:00,
2013-01-10 15:19:00,61.1,61.1,-100.00,SE,135,2.0,4.4,100,0.02,,,0.18,,2013-01-10 21:19:00,
2013-01-10 15:24:00,61.1,61.1,-100.00,ENE,67,1.1,2.5,100,0.03,,,0.19,,2013-01-10 21:24:00,
2013-01-10 15:29:00,61.1,61.1,-100.00,NNE,22,0.8,2.5,100,0.04,,,0.20,,2013-01-10 21:29:00,
2013-01-10 15:34:00,61.2,61.2,-100.00,NNW,337,0.2,0.7,100,0.05,,,0.21,,2013-01-10 21:34:00,
2013-01-10 15:39:00,61.2,61.2,-100.00,NW,315,0.1,0.6,100,0.05,,,0.21,,2013-01-10 21:39:00,
2013-01-10 15:44:00,61.2,61.2,-100.00,North,0,0.4,1.5,100,0.06,,,0.22,,2013-01-10 21:44:00,
2013-01-10 15:49:00,61.1,61.1,-100.00,ENE,67,0.5,1.5,100,0.07,,,0.23,,2013-01-10 21:49:00,
2013-01-10 15:55:00,61.0,61.0,-100.00,NE,45,0.7,1.8,100,0.08,,,0.24,,2013-01-10 21:55:00,
2013-01-10 16:00:00,60.7,60.7,-100.00,NNE,22,1.6,4.0,100,0.08,,,0.24,,2013-01-10 22:00:00,
2013-01-10 16:05:00,60.7,60.7,-100.00,NE,45,1.9,4.0,100,0.08,,,0.25,,2013-01-10 22:05:00,
2013-01-10 16:10:00,60.6,60.6,-100.00,ENE,67,1.9,3.8,100,0.09,,,0.26,,2013-01-10 22:10:00,
2013-01-10 16:15:00,60.6,60.6,-100.00,NNE,22,1.3,3.8,100,0.09,,,0.27,,2013-01-10 22:15:00,
2013-01-10 16:20:00,60.7,60.7,-100.00,North,0,0.5,1.3,100,0.10,,,0.28,,2013-01-10 22:20:00,
2013-01-10 16:25:00,60.7,60.7,-100.00,NNE,22,0.4,1.3,100,0.11,,,0.30,,2013-01-10 22:25:00,
2013-01-10 16:30:00,60.6,60.6,-100.00,NNE,22,0.6,2.4,100,0.11,,,0.31,,2013-01-10 22:30:00,
2013-01-10 16:35:00,60.7,60.7,-100.00,NNE,22,1.4,2.8,100,0.11,,,0.32,,2013-01-10 22:35:00,
2013-01-10 16:40:00,60.7,60.7,-100.00,NNE,22,1.9,3.4,100,0.12,,,0.33,,2013-01-10 22:40:00,
2013-01-10 16:45:00,60.3,60.3,-100.00,North,0,3.4,7.1,100,0.11,,,0.33,,2013-01-10 22:45:00,
2013-01-10 16:50:00,60.5,60.5,-100.00,North,0,3.6,7.1,100,0.11,,,0.34,,2013-01-10 22:50:00,
2013-01-10 16:56:00,60.3,60.3,-100.00,North,0,3.0,4.3,100,0.11,,,0.35,,2013-01-10 22:56:00,
2013-01-10 17:01:00,60.5,60.5,-100.00,North,0,3.3,5.4,100,0.11,,,0.35,,2013-01-10 23:01:00,
2013-01-10 17:06:00,60.9,60.7,-100.00,North,0,3.3,6.6,99,0.11,,,0.36,,2013-01-10 23:06:00,
2013-01-10 17:11:00,61.4,61.4,-100.00,North,0,3.7,6.6,100,0.11,,,0.37,,2013-01-10 23:11:00,
2013-01-10 17:16:00,61.6,61.6,-100.00,NNE,22,3.1,5.8,100,0.10,,,0.38,,2013-01-10 23:16:00,
2013-01-10 17:21:00,61.5,61.5,-100.00,NNE,22,3.5,7.1,100,0.09,,,0.38,,2013-01-10 23:21:00,
2013-01-10 17:26:00,60.9,60.9,-100.00,North,0,4.3,9.0,100,0.09,,,0.39,,2013-01-10 23:26:00,
2013-01-10 17:31:00,60.0,60.0,-100.00,North,0,5.6,10.4,100,0.08,,,0.39,,2013-01-10 23:31:00,
2013-01-10 17:36:00,60.2,60.2,-100.00,North,0,5.9,10.4,100,0.07,,,0.39,,2013-01-10 23:36:00,
2013-01-10 17:41:00,60.7,60.7,-100.00,North,0,5.9,10.5,100,0.07,,,0.40,,2013-01-10 23:41:00,
2013-01-10 17:46:00,60.8,60.8,-100.00,North,0,6.3,9.9,100,0.06,,,0.40,,2013-01-10 23:46:00,
2013-01-10 17:52:00,61.1,61.1,-100.00,NNW,337,7.4,12.4,100,0.07,,,0.41,,2013-01-10 23:52:00,
2013-01-10 17:57:00,61.4,61.4,-100.00,North,0,7.8,13.2,100,0.06,,,0.41,,2013-01-10 23:57:00,
2013-01-10 18:02:00,61.7,61.7,-100.00,North,0,7.4,13.2,100,0.06,,,0.41,,2013-01-11 00:02:00,
2013-01-10 18:07:00,61.4,61.4,-100.00,North,0,7.6,12.4,100,0.05,,,0.41,,2013-01-11 00:07:00,
2013-01-10 18:12:00,60.8,60.8,-100.00,North,0,6.9,12.4,100,0.04,,,0.41,,2013-01-11 00:12:00,
2013-01-10 18:17:00,60.8,60.8,-100.00,NNW,337,6.3,11.2,100,0.03,,,0.41,,2013-01-11 00:17:00,
2013-01-10 18:22:00,60.6,60.6,-100.00,NNW,337,7.2,11.9,100,0.04,,,0.42,,2013-01-11 00:22:00,
2013-01-10 18:27:00,60.2,60.2,-100.00,North,0,5.8,11.9,100,0.03,,,0.42,,2013-01-11 00:27:00,
2013-01-10 18:32:00,60.3,60.3,-100.00,NNE,22,4.5,9.2,100,0.03,,,0.42,,2013-01-11 00:32:00,
2013-01-10 18:37:00,60.2,60.2,-100.00,North,0,5.1,8.5,100,0.02,,,0.42,,2013-01-11 00:37:00,
2013-01-10 18:42:00,60.1,60.1,-100.00,NNW,337,5.3,8.6,100,0.02,,,0.42,,2013-01-11 00:42:00,
2013-01-10 18:47:00,60.3,60.3,-100.00,NNW,337,5.2,10.5,100,0.02,,,0.42,,2013-01-11 00:47:00,
2013-01-10 18:53:00,60.3,60.3,-100.00,NNW,337,6.9,11.6,100,0.01,,,0.42,,2013-01-11 00:53:00,
2013-01-10 18:58:00,60.3,60.3,-100.00,NNW,337,9.2,16.0,100,0.01,,,0.42,,2013-01-11 00:58:00,
2013-01-10 19:03:00,61.2,61.1,-100.00,North,0,7.5,16.0,99,0.01,,,0.42,,2013-01-11 01:03:00,
2013-01-10 19:08:00,61.4,61.4,-100.00,North,0,6.3,13.9,100,0.01,,,0.42,,2013-01-11 01:08:00,
2013-01-10 19:13:00,61.1,60.8,-100.00,North,0,5.8,13.9,98,0.01,,,0.42,,2013-01-11 01:13:00,
2013-01-10 19:18:00,61.0,61.0,-100.00,North,0,3.4,7.6,100,0.01,,,0.42,,2013-01-11 01:18:00,
2013-01-10 19:23:00,61.1,61.1,-100.00,NE,45,1.9,5.8,100,0.00,,,0.42,,2013-01-11 01:23:00,
2013-01-10 19:28:00,61.2,61.2,-100.00,SE,135,1.8,4.2,100,0.00,,,0.42,,2013-01-11 01:28:00,
2013-01-10 19:33:00,61.4,61.4,-100.00,ESE,112,1.2,3.1,100,0.00,,,0.42,,2013-01-11 01:33:00,
2013-01-10 19:38:00,61.7,61.7,-100.00,ESE,112,2.1,6.0,100,0.00,,,0.42,,2013-01-11 01:38:00,
2013-01-10 19:44:00,62.0,62.0,-100.00,East,90,3.5,9.9,100,0.00,,,0.42,,2013-01-11 01:44:00,
2013-01-10 19:49:00,61.7,61.7,-100.00,NNE,22,2.5,9.9,100,0.00,,,0.42,,2013-01-11 01:49:00,
2013-01-10 19:54:00,61.5,61.5,-100.00,North,0,1.4,3.8,100,0.00,,,0.42,,2013-01-11 01:54:00,
2013-01-10 19:59:00,61.6,61.6,-100.00,NW,315,2.3,5.5,100,0.00,,,0.42,,2013-01-11 01:59:00,
2013-01-10 20:04:00,61.6,61.6,-100.00,NNW,337,4.1,8.5,100,0.00,,,0.42,,2013-01-11 02:04:00,
2013-01-10 20:09:00,61.8,61.8,-100.00,ENE,67,4.2,9.3,100,0.00,,,0.42,,2013-01-11 02:09:00,
2013-01-10 20:14:00,62.0,61.7,-100.00,SSE,157,4.8,9.3,98,0.00,,,0.42,,2013-01-11 02:14:00,
2013-01-10 20:19:00,62.3,62.3,-100.00,SSE,157,4.0,8.5,100,0.00,,,0.42,,2013-01-11 02:19:00,
2013-01-10 20:24:00,62.4,62.4,-100.00,SSE,157,3.2,5.8,100,0.00,,,0.42,,2013-01-11 02:24:00,
2013-01-10 20:29:00,62.2,62.2,-100.00,SE,135,3.1,5.5,100,0.00,,,0.42,,2013-01-11 02:29:00,
2013-01-10 20:34:00,62.6,62.6,-100.00,ESE,112,3.2,5.5,100,0.00,,,0.42,,2013-01-11 02:34:00,
2013-01-10 20:39:00,62.7,62.7,-100.00,ESE,112,3.1,5.5,100,0.00,,,0.42,,2013-01-11 02:39:00,
2013-01-10 20:44:00,62.8,62.8,-100.00,ENE,67,2.8,5.5,100,0.00,,,0.42,,2013-01-11 02:44:00,
2013-01-10 20:49:00,62.8,62.5,-100.00,NNE,22,2.5,5.2,98,0.00,,,0.42,,2013-01-11 02:49:00,
2013-01-10 20:54:00,62.8,62.8,-100.00,NNE,22,2.3,5.1,100,0.00,,,0.42,,2013-01-11 02:54:00,
2013-01-10 20:59:00,62.8,62.8,-100.00,NE,45,2.1,4.6,100,0.00,,,0.42,,2013-01-11 02:59:00,
2013-01-10 21:04:00,62.8,62.8,-100.00,ENE,67,1.6,3.4,100,0.00,,,0.42,,2013-01-11 03:04:00,
2013-01-10 21:09:00,62.7,62.7,-100.00,NE,45,1.4,3.0,100,0.00,,,0.42,,2013-01-11 03:09:00,
2013-01-10 21:14:00,62.6,62.6,-100.00,NNE,22,1.6,3.0,100,0.00,,,0.42,,2013-01-11 03:14:00,
2013-01-10 21:19:00,62.6,62.6,-100.00,NNE,22,1.7,4.0,100,0.00,,,0.42,,2013-01-11 03:19:00,
2013-01-10 21:25:00,62.5,62.5,-100.00,North,0,2.4,5.5,100,0.00,,,0.42,,2013-01-11 03:25:00,
2013-01-10 21:30:00,62.6,62.6,-100.00,NNE,22,2.5,5.5,100,0.00,,,0.42,,2013-01-11 03:30:00,
2013-01-10 21:35:00,62.5,62.5,-100.00,NNE,22,1.9,3.8,100,0.00,,,0.42,,2013-01-11 03:35:00,
2013-01-10 21:40:00,62.6,62.6,-100.00,NNE,22,1.8,3.5,100,0.00,,,0.42,,2013-01-11 03:40:00,
2013-01-10 21:45:00,62.6,62.6,-100.00,NNE,22,1.8,3.4,100,0.00,,,0.42,,2013-01-11 03:45:00,
2013-01-10 21:50:00,62.5,62.5,-100.00,North,0,0.8,2.4,100,0.00,,,0.42,,2013-01-11 03:50:00,
2013-01-10 21:55:00,62.4,62.4,-100.00,North,0,0.9,2.2,100,0.00,,,0.42,,2013-01-11 03:55:00,
2013-01-10 22:00:00,62.4,62.4,-100.00,NNE,22,1.2,3.1,100,0.00,,,0.42,,2013-01-11 04:00:00,
2013-01-10 22:05:00,62.2,62.2,-100.00,NNE,22,1.0,2.0,100,0.00,,,0.42,,2013-01-11 04:05:00,
2013-01-10 22:10:00,62.2,62.2,-100.00,NNE,22,0.9,2.2,100,0.00,,,0.42,,2013-01-11 04:10:00,
2013-01-10 22:15:00,61.9,61.9,-100.00,NNE,22,0.8,2.2,100,0.00,,,0.42,,2013-01-11 04:15:00,
2013-01-10 22:20:00,61.9,61.9,-100.00,North,0,0.8,2.1,100,0.00,,,0.42,,2013-01-11 04:20:00,
2013-01-10 22:25:00,61.7,61.7,-100.00,North,0,0.8,2.1,100,0.00,,,0.42,,2013-01-11 04:25:00,
2013-01-10 22:31:00,61.6,61.0,-100.00,North,0,0.9,1.8,97,0.00,,,0.42,,2013-01-11 04:31:00,
2013-01-10 22:36:00,61.5,61.4,-100.00,North,0,1.2,2.0,99,0.00,,,0.42,,2013-01-11 04:36:00,
2013-01-10 22:41:00,61.5,61.3,-100.00,NNE,22,1.2,2.0,99,0.00,,,0.42,,2013-01-11 04:41:00,
2013-01-10 22:46:00,61.7,61.7,-100.00,NNE,22,2.1,5.2,99,0.00,,,0.42,,2013-01-11 04:46:00,
2013-01-10 22:51:00,61.5,61.5,-100.00,NNE,22,2.0,4.0,100,0.00,,,0.42,,2013-01-11 04:51:00,
2013-01-10 22:56:00,61.5,61.3,-100.00,NNE,22,1.6,4.0,99,0.00,,,0.42,,2013-01-11 04:56:00,
2013-01-10 23:00:00,61.5,61.5,-100.00,NNE,22,1.3,2.8,100,0.00,,,0.42,,2013-01-11 05:00:00,